Regional Weather Roundup
Issued by NWS State College, PA

Home | Current Version | Previous Version | Graphics & Text | Print | Product List | Glossary Off
Versions: 1 2 3 4 5 6 7 8 9 10 11 12 13 14 15 16 17 18 19 20 21 22 23 24 25 26 27 28 29 30 31 32 33 34 35 36 37 38 39 40 41 42 43 44 45 46 47 48 49 50

000
ASUS41 KCTP 260810
RWRCTP

REGIONAL WEATHER ROUNDUP
NATIONAL WEATHER SERVICE STATE COLLEGE PA
400 AM EDT FRI AUG 26 2016

Note: "fair" indicates few or no clouds below 12,000 feet with no
significant weather and/or obstructions to visibility.

* = STATION THAT DOES NOT REPORT PRECIPITATION /E.G. RAIN...SNOW...ETC/
    THUNDER OR FOG.

PAZ002>004-007>009-013>016-020>023-029>032-260900-
WESTERN PENNSYLVANIA

CITY           SKY/WX    TMP DP  RH WIND       PRES   REMARKS
ERIE           LGT RAIN  73  71  93 SW5       30.04R
MEADVILLE      CLOUDY    70  68  93 SW5       30.08S
FRANKLIN*        N/A     70  66  88 SW7       30.09S
NEW CASTLE     FAIR      71  70  96 W3        30.09S
BEAVER COUNTY  NOT AVBL
BUTLER*        NOT AVBL
PITTSBURGH INT FAIR      73  70  90 W3        30.09S
PITTSBURGH     FAIR      74  70  87 W5        30.08F
INDIANA*       CLOUDY    72  72 100 W6        30.12S
LATROBE        FAIR      72  72 100 CALM      30.10R
WASHINGTON CO* FAIR      72  70  94 W3        30.11S
$$

PAZ004>006-010>012-017>019-024>028-033>037-041-042-045-046-049>053-260900-
CENTRAL PENNSYLVANIA

CITY           SKY/WX    TMP DP  RH WIND       PRES   REMARKS
BRADFORD       CLOUDY    70  69  97 W7        30.09R
DUBOIS         FOG       70  68  93 W8        30.08S VSB 1/4
CLEARFIELD     FAIR      71  71 100 SW6       30.07S
JOHNSTOWN      MOCLDY    70  68  93 W9        30.13R
ALTOONA        FAIR      70  70 100 W3        30.08S
STATE COLLEGE  FAIR      71  70  97 SW5       30.04S
WILLIAMSPORT   FAIR      75  71  87 W3        29.97R
SELINSGROVE    CLOUDY    73  73 100 CALM      29.99S
FT INDIANTOWN  TSTM      73  73 100 SW3       30.01R FOG
CAPITAL CITY   LGT RAIN  77  73  87 CALM      30.00R
HARRISBURG     TSTM      77  75  93 N9G22     30.00R
YORK           MOCLDY    76  73  91 CALM      30.00S
$$

PAZ038>040-043-044-047-048-054-055-060>062-067>071-260900-
EASTERN PENNSYLVANIA

CITY           SKY/WX    TMP DP  RH WIND       PRES   REMARKS
SCRANTON       CLOUDY    74  72  93 SW3       29.99S
MOUNT POCONO   CLOUDY    71  69  93 W9        30.04F
ALLENTOWN      FAIR      72  69  90 NW5       29.99R FOG
QUAKERTOWN*    FAIR      73  72  94 CALM      30.01S
READING        FAIR      76  72  87 CALM      29.98S
LANCASTER      FAIR      73  73 100 CALM      30.00R FOG
COATESVILLE    CLOUDY    73  73 100 CALM      30.03S FOG
POTTSTOWN      FAIR      73  72  96 CALM      30.00F
BLUE BELL      FAIR      73  70  88 CALM      29.98F
DOYLESTOWN     FAIR      75  72  90 S3        29.99F
WILLOW GROVE   NOT AVBL
NORTH PHILA    FAIR      77  71  82 CALM      30.00F
PHILADELPHIA   FAIR      76  70  82 S7        30.00F
$$



USA.gov is the U.S. government's official web portal to all federal, state and local government web resources and services.